| time (UTC) | temp C | wind direction | speed KPH | gust KPH | rain 1hr cm | rain 24hr cm | rain mn cm | humidity % | barometer mb |
| 20260506193517 | 10 | 300 | 17.7 | 29.0 | 0.00 | 0.00 | 0.00 | 36 | 1011.8 |
| 20260506193016 | 10 | 296 | 17.7 | 27.4 | 0.00 | 0.00 | 0.00 | 36 | 1011.7 |
| 20260506192516 | 10 | 286 | 16.1 | 25.7 | 0.00 | 0.00 | 0.00 | 36 | 1011.7 |
| 20260506192037 | 10 | 286 | 11.3 | 25.7 | 0.00 | 0.00 | 0.00 | 35 | 1011.7 |
| 20260506191516 | 11 | 305 | 17.7 | 25.7 | 0.00 | 0.00 | 0.00 | 35 | 1011.8 |
| 20260506191017 | 11 | 274 | 16.1 | 25.7 | 0.00 | 0.00 | 0.00 | 35 | 1011.6 |
| 20260506190516 | 11 | 282 | 14.5 | 29.0 | 0.00 | 0.00 | 0.00 | 37 | 1011.6 |
| 20260506190016 | 10 | 290 | 16.1 | 29.0 | 0.00 | 0.00 | 0.00 | 36 | 1011.7 |
| 20260506185516 | 10 | 283 | 16.1 | 29.0 | 0.00 | 0.00 | 0.00 | 38 | 1011.8 |
| 20260506185016 | 10 | 300 | 17.7 | 29.0 | 0.00 | 0.00 | 0.00 | 36 | 1011.9 |
| 20260506184517 | 11 | 279 | 17.7 | 27.4 | 0.00 | 0.00 | 0.00 | 37 | 1011.9 |
| 20260506184016 | 10 | 262 | 16.1 | 27.4 | 0.00 | 0.00 | 0.00 | 36 | 1011.8 |
| 20260506183516 | 10 | 281 | 16.1 | 25.7 | 0.00 | 0.00 | 0.00 | 36 | 1011.9 |
| 20260506183016 | 11 | 287 | 14.5 | 27.4 | 0.00 | 0.00 | 0.00 | 37 | 1011.7 |
| 20260506182516 | 11 | 256 | 16.1 | 32.2 | 0.00 | 0.00 | 0.00 | 39 | 1011.7 |
| 20260506182016 | 10 | 295 | 19.3 | 32.2 | 0.00 | 0.00 | 0.00 | 40 | 1011.8 |
| 20260506181516 | 10 | 310 | 14.5 | 29.0 | 0.00 | 0.00 | 0.00 | 38 | 1011.6 |
| 20260506181016 | 10 | 313 | 19.3 | 29.0 | 0.00 | 0.00 | 0.00 | 36 | 1011.9 |
| 20260506180517 | 10 | 279 | 17.7 | 27.4 | 0.00 | 0.00 | 0.00 | 39 | 1011.7 |
| 20260506180036 | 10 | 279 | 14.5 | 27.4 | 0.00 | 0.00 | 0.00 | 39 | 1011.7 |
| 20260506175516 | 10 | 307 | 12.9 | 24.1 | 0.00 | 0.00 | 0.00 | 37 | 1011.8 |
| 20260506175016 | 10 | 311 | 9.7 | 24.1 | 0.00 | 0.00 | 0.00 | 38 | 1011.6 |
| 20260506174517 | 10 | 312 | 14.5 | 24.1 | 0.00 | 0.00 | 0.00 | 38 | 1011.7 |
| 20260506174016 | 10 | 269 | 9.7 | 25.7 | 0.00 | 0.00 | 0.00 | 37 | 1011.8 |
| 20260506173516 | 10 | 291 | 14.5 | 25.7 | 0.00 | 0.00 | 0.00 | 37 | 1011.7 |
| 20260506173017 | 10 | 275 | 12.9 | 30.6 | 0.00 | 0.00 | 0.00 | 38 | 1011.8 |
| 20260506172536 | 10 | 272 | 16.1 | 30.6 | 0.00 | 0.00 | 0.00 | 38 | 1011.9 |
| 20260506172016 | 10 | 284 | 16.1 | 25.7 | 0.00 | 0.00 | 0.00 | 37 | 1011.8 |
| 20260506171516 | 11 | 287 | 16.1 | 25.7 | 0.00 | 0.00 | 0.00 | 37 | 1011.8 |
| 20260506171017 | 10 | 321 | 14.5 | 24.1 | 0.00 | 0.00 | 0.00 | 39 | 1011.9 |
| 20260506170516 | 10 | 306 | 12.9 | 24.1 | 0.00 | 0.00 | 0.00 | 38 | 1011.9 |
| 20260506170037 | 10 | 295 | 9.7 | 17.7 | 0.00 | 0.00 | 0.00 | 38 | 1011.9 |
| 20260506165516 | 10 | 272 | 12.9 | 27.4 | 0.00 | 0.00 | 0.00 | 39 | 1012.0 |
| 20260506165016 | 10 | 301 | 11.3 | 27.4 | 0.00 | 0.00 | 0.00 | 38 | 1011.9 |
| 20260506164516 | 10 | 314 | 9.7 | 20.9 | 0.00 | 0.00 | 0.00 | 43 | 1011.9 |
| 20260506164016 | 10 | 321 | 14.5 | 22.5 | 0.00 | 0.00 | 0.00 | 40 | 1011.9 |
| 20260506163516 | 10 | 344 | 11.3 | 24.1 | 0.00 | 0.00 | 0.00 | 40 | 1011.9 |
| 20260506163016 | 10 | 344 | 16.1 | 27.4 | 0.00 | 0.00 | 0.00 | 42 | 1011.9 |
| 20260506162516 | 10 | 323 | 17.7 | 29.0 | 0.00 | 0.00 | 0.00 | 38 | 1011.8 |
| 20260506162016 | 10 | 331 | 9.7 | 29.0 | 0.00 | 0.00 | 0.00 | 39 | 1011.8 |
| 20260506161516 | 10 | 9 | 11.3 | 25.7 | 0.00 | 0.00 | 0.00 | 42 | 1011.8 |
| 20260506161037 | 10 | 310 | 14.5 | 25.7 | 0.00 | 0.00 | 0.00 | 40 | 1011.9 |
| 20260506160516 | 10 | 280 | 14.5 | 24.1 | 0.00 | 0.00 | 0.00 | 39 | 1011.9 |
| 20260506160016 | 10 | 291 | 14.5 | 24.1 | 0.00 | 0.00 | 0.00 | 39 | 1011.9 |
| 20260506155536 | 10 | 318 | 8.0 | 20.9 | 0.00 | 0.00 | 0.00 | 39 | 1012.0 |
| 20260506155016 | 10 | 324 | 11.3 | 20.9 | 0.00 | 0.00 | 0.00 | 39 | 1012.0 |
| 20260506154536 | 10 | 292 | 9.7 | 19.3 | 0.00 | 0.00 | 0.00 | 40 | 1011.9 |
| 20260506154016 | 10 | 314 | 12.9 | 25.7 | 0.00 | 0.00 | 0.00 | 43 | 1011.9 |
| 20260506153516 | 10 | 308 | 17.7 | 25.7 | 0.00 | 0.00 | 0.00 | 38 | 1012.0 |
| 20260506153016 | 10 | 278 | 11.3 | 19.3 | 0.00 | 0.00 | 0.00 | 37 | 1011.8 |
| 20260506152536 | 10 | 1 | 9.7 | 17.7 | 0.00 | 0.00 | 0.00 | 42 | 1011.9 |
| 20260506152037 | 10 | 323 | 6.4 | 14.5 | 0.00 | 0.00 | 0.00 | 41 | 1011.9 |
| 20260506151516 | 10 | 319 | 4.8 | 12.9 | 0.00 | 0.00 | 0.00 | 44 | 1011.9 |
| 20260506151016 | 10 | 38 | 4.8 | 12.9 | 0.00 | 0.00 | 0.00 | 42 | 1012.0 |
| 20260506150536 | 9 | 16 | 4.8 | 14.5 | 0.00 | 0.00 | 0.00 | 43 | 1012.0 |
| 20260506150016 | 8 | 316 | 6.4 | 14.5 | 0.00 | 0.00 | 0.00 | 41 | 1011.9 |
| 20260506145517 | 8 | 346 | 8.0 | 20.9 | 0.00 | 0.00 | 0.00 | 42 | 1012.0 |
| 20260506145016 | 8 | 306 | 11.3 | 20.9 | 0.00 | 0.00 | 0.00 | 40 | 1011.9 |
| 20260506144516 | 8 | 282 | 9.7 | 16.1 | 0.00 | 0.00 | 0.00 | 41 | 1011.8 |
| 20260506144016 | 8 | 52 | 1.6 | 9.7 | 0.00 | 0.00 | 0.00 | 44 | 1011.7 |
| 20260506143516 | 8 | 325 | 3.2 | 12.9 | 0.00 | 0.00 | 0.00 | 44 | 1011.7 |
| 20260506143036 | 8 | 308 | 4.8 | 16.1 | 0.00 | 0.00 | 0.00 | 43 | 1011.7 |
| 20260506142515 | 9 | 332 | 6.4 | 16.1 | 0.00 | 0.00 | 0.00 | 45 | 1011.6 |
| 20260506142016 | 9 | 301 | 1.6 | 12.9 | 0.00 | 0.00 | 0.00 | 45 | 1011.5 |
| 20260506141537 | 9 | 68 | 1.6 | 8.0 | 0.00 | 0.00 | 0.00 | 47 | 1011.5 |
| 20260506141016 | 8 | 60 | 1.6 | 4.8 | 0.00 | 0.00 | 0.00 | 50 | 1011.5 |
| 20260506140516 | 8 | 73 | 1.6 | 6.4 | 0.00 | 0.00 | 0.00 | 51 | 1011.5 |
| 20260506140017 | 8 | 102 | 1.6 | 6.4 | 0.00 | 0.00 | 0.00 | 51 | 1011.4 |
| 20260506135516 | 8 | 93 | 3.2 | 9.7 | 0.00 | 0.00 | 0.00 | 52 | 1011.4 |
| 20260506135037 | 7 | 53 | 4.8 | 11.3 | 0.00 | 0.00 | 0.00 | 52 | 1011.5 |
| 20260506134536 | 7 | 13 | 3.2 | 12.9 | 0.00 | 0.00 | 0.00 | 55 | 1011.4 |
| 20260506134037 | 7 | 27 | 4.8 | 12.9 | 0.00 | 0.00 | 0.00 | 56 | 1011.3 |
| 20260506133536 | 7 | 16 | 4.8 | 11.3 | 0.00 | 0.00 | 0.00 | 58 | 1011.3 |
| 20260506133016 | 7 | 33 | 6.4 | 14.5 | 0.00 | 0.00 | 0.00 | 57 | 1011.2 |
| 20260506132516 | 7 | 39 | 8.0 | 14.5 | 0.00 | 0.00 | 0.00 | 58 | 1011.0 |
| 20260506132017 | 7 | 50 | 4.8 | 12.9 | 0.00 | 0.00 | 0.00 | 59 | 1011.0 |
| 20260506131515 | 7 | 32 | 6.4 | 14.5 | 0.00 | 0.00 | 0.00 | 59 | 1011.1 |
| 20260506131015 | 7 | 43 | 8.0 | 14.5 | 0.00 | 0.00 | 0.00 | 60 | 1011.1 |
| 20260506130516 | 7 | 43 | 6.4 | 14.5 | 0.00 | 0.00 | 0.00 | 60 | 1011.1 |
| 20260506130016 | 7 | 25 | 6.4 | 14.5 | 0.00 | 0.00 | 0.00 | 63 | 1011.1 |
| 20260506125515 | 7 | 31 | 6.4 | 12.9 | 0.00 | 0.00 | 0.00 | 63 | 1011.0 |
| 20260506125037 | 6 | 60 | 4.8 | 11.3 | 0.00 | 0.00 | 0.00 | 65 | 1011.1 |
| 20260506124015 | 6 | 46 | 4.8 | 12.9 | 0.00 | 0.00 | 0.00 | 68 | 1011.1 |
| 20260506123537 | 6 | 4 | 4.8 | 12.9 | 0.00 | 0.00 | 0.00 | 68 | 1011.1 |
| 20260506123017 | 5 | 15 | 4.8 | 11.3 | 0.00 | 0.00 | 0.00 | 71 | 1011.1 |
| 20260506122516 | 5 | 2 | 4.8 | 11.3 | 0.00 | 0.00 | 0.00 | 74 | 1011.1 |
| 20260506122015 | 4 | 355 | 0.0 | 8.0 | 0.00 | 0.00 | 0.00 | 79 | 1010.9 |
| 20260506121515 | 4 | 297 | 1.6 | 4.8 | 0.00 | 0.00 | 0.00 | 79 | 1010.9 |
| 20260506121037 | 3 | 270 | 1.6 | 6.4 | 0.00 | 0.00 | 0.00 | 82 | 1010.8 |
| 20260506120516 | 3 | 266 | 3.2 | 6.4 | 0.00 | 0.00 | 0.00 | 83 | 1010.7 |
| 20260506120015 | 3 | 255 | 4.8 | 6.4 | 0.00 | 0.00 | 0.00 | 85 | 1010.7 |
| 20260506115515 | 3 | 256 | 3.2 | 6.4 | 0.00 | 0.00 | 0.00 | 87 | 1010.5 |
| 20260506115036 | 2 | 252 | 3.2 | 6.4 | 0.00 | 0.00 | 0.00 | 87 | 1010.4 |
| 20260506114557 | 2 | 253 | 3.2 | 4.8 | 0.00 | 0.00 | 0.00 | 87 | 1010.3 |
| 20260506114016 | 2 | 222 | 3.2 | 4.8 | 0.00 | 0.00 | 0.00 | 87 | 1010.2 |
| 20260506113515 | 1 | 142 | 0.0 | 3.2 | 0.00 | 0.00 | 0.00 | 85 | 1010.1 |
| 20260506113015 | 1 | 142 | 0.0 | 1.6 | 0.00 | 0.00 | 0.00 | 85 | 1009.9 |
| 20260506112515 | 1 | 0.0 | 0.0 | 0.00 | 0.00 | 0.00 | 84 | 1009.8 | |
| 20260506112015 | 1 | 0.0 | 1.6 | 0.00 | 0.00 | 0.00 | 84 | 1009.8 | |
| 20260506111515 | 1 | 141 | 0.0 | 1.6 | 0.00 | 0.00 | 0.00 | 83 | 1009.6 |
| 20260506111015 | 2 | 142 | 0.0 | 3.2 | 0.00 | 0.00 | 0.00 | 83 | 1009.5 |
| 20260506110515 | 2 | 142 | 1.6 | 3.2 | 0.00 | 0.00 | 0.00 | 83 | 1009.5 |
| 20260506110036 | 2 | 142 | 1.6 | 4.8 | 0.00 | 0.00 | 0.00 | 82 | 1009.5 |
| 20260506105516 | 2 | 141 | 0.0 | 4.8 | 0.00 | 0.00 | 0.00 | 82 | 1009.4 |
| 20260506105015 | 2 | 275 | 0.0 | 4.8 | 0.00 | 0.00 | 0.00 | 82 | 1009.2 |
| 20260506104515 | 2 | 275 | 1.6 | 4.8 | 0.00 | 0.00 | 0.00 | 82 | 1009.2 |
| 20260506104015 | 2 | 268 | 3.2 | 4.8 | 0.00 | 0.00 | 0.00 | 82 | 1009.3 |
| 20260506103515 | 2 | 279 | 3.2 | 4.8 | 0.00 | 0.00 | 0.00 | 82 | 1009.3 |
| 20260506103015 | 2 | 290 | 3.2 | 4.8 | 0.00 | 0.00 | 0.00 | 82 | 1009.3 |
| 20260506102515 | 2 | 298 | 1.6 | 3.2 | 0.00 | 0.00 | 0.00 | 82 | 1009.4 |
| 20260506102035 | 2 | 300 | 1.6 | 4.8 | 0.00 | 0.00 | 0.00 | 82 | 1009.3 |
| 20260506101536 | 2 | 296 | 1.6 | 4.8 | 0.00 | 0.00 | 0.00 | 82 | 1009.6 |
| 20260506101017 | 2 | 287 | 3.2 | 4.8 | 0.00 | 0.00 | 0.00 | 82 | 1009.5 |
| 20260506100535 | 2 | 297 | 1.6 | 4.8 | 0.00 | 0.00 | 0.00 | 83 | 1009.4 |
| 20260506100015 | 2 | 308 | 1.6 | 4.8 | 0.00 | 0.00 | 0.00 | 83 | 1009.4 |
| 20260506095515 | 2 | 303 | 1.6 | 4.8 | 0.00 | 0.00 | 0.00 | 83 | 1009.3 |
| 20260506095036 | 2 | 291 | 1.6 | 6.4 | 0.00 | 0.00 | 0.00 | 83 | 1009.3 |
| 20260506094515 | 2 | 275 | 3.2 | 6.4 | 0.00 | 0.00 | 0.00 | 83 | 1009.4 |
| 20260506094038 | 2 | 274 | 3.2 | 6.4 | 0.00 | 0.00 | 0.00 | 83 | 1009.4 |
| 20260506093516 | 2 | 291 | 1.6 | 4.8 | 0.00 | 0.00 | 0.00 | 82 | 1009.3 |
| 20260506093015 | 2 | 280 | 1.6 | 4.8 | 0.00 | 0.00 | 0.00 | 83 | 1009.2 |
| 20260506092535 | 2 | 281 | 1.6 | 4.8 | 0.00 | 0.00 | 0.00 | 82 | 1009.2 |
| 20260506092015 | 2 | 298 | 0.0 | 3.2 | 0.00 | 0.00 | 0.00 | 81 | 1009.1 |
| 20260506091535 | 2 | 0.0 | 0.0 | 0.00 | 0.00 | 0.00 | 81 | 1008.9 | |
| 20260506091015 | 2 | 0.0 | 0.0 | 0.00 | 0.00 | 0.00 | 81 | 1008.9 | |
| 20260506090515 | 2 | 0.0 | 0.0 | 0.00 | 0.00 | 0.00 | 81 | 1008.8 | |
| 20260506090015 | 2 | 0.0 | 0.0 | 0.00 | 0.00 | 0.00 | 81 | 1008.8 | |
| 20260506085515 | 2 | 0.0 | 0.0 | 0.00 | 0.00 | 0.00 | 81 | 1008.8 | |
| 20260506085015 | 2 | 0.0 | 0.0 | 0.00 | 0.00 | 0.00 | 80 | 1008.7 | |
| 20260506084515 | 2 | 0.0 | 0.0 | 0.00 | 0.00 | 0.00 | 79 | 1008.6 | |
| 20260506084015 | 2 | 0.0 | 0.0 | 0.00 | 0.00 | 0.00 | 77 | 1008.6 | |
| 20260506083515 | 3 | 0.0 | 0.0 | 0.00 | 0.00 | 0.00 | 77 | 1008.6 | |
| 20260506083138 | 3 | 0.0 | 0.0 | 0.00 | 0.00 | 0.00 | 78 | 1008.6 | |
| 20260506082515 | 3 | 0.0 | 0.0 | 0.00 | 0.00 | 0.00 | 77 | 1008.5 | |
| 20260506082015 | 3 | 0.0 | 0.0 | 0.00 | 0.00 | 0.00 | 77 | 1008.5 | |
| 20260506081515 | 3 | 0.0 | 0.0 | 0.00 | 0.00 | 0.00 | 76 | 1008.5 | |
| 20260506081016 | 3 | 0.0 | 0.0 | 0.00 | 0.00 | 0.00 | 76 | 1008.5 | |
| 20260506080515 | 3 | 0.0 | 0.0 | 0.00 | 0.00 | 0.00 | 75 | 1008.5 | |
| 20260506073517 | 4 | 252 | 0.0 | 3.2 | 0.00 | 0.00 | 0.00 | 71 | 1008.6 |
| 20260506073017 | 4 | 0.0 | 3.2 | 0.00 | 0.00 | 0.00 | 71 | 1008.6 | |
| 20260506072517 | 5 | 252 | 0.0 | 4.8 | 0.00 | 0.00 | 0.00 | 70 | 1008.5 |
| 20260506072017 | 5 | 299 | 1.6 | 4.8 | 0.00 | 0.00 | 0.00 | 69 | 1008.7 |
| 20260506071517 | 5 | 329 | 1.6 | 3.2 | 0.00 | 0.00 | 0.00 | 68 | 1008.6 |
| 20260506071038 | 5 | 331 | 0.0 | 4.8 | 0.00 | 0.00 | 0.00 | 68 | 1008.6 |
| 20260506070517 | 5 | 335 | 1.6 | 4.8 | 0.00 | 0.00 | 0.00 | 68 | 1008.7 |
| 20260506062517 | 6 | 327 | 3.2 | 11.3 | 0.00 | 0.00 | 0.00 | 65 | 1008.7 |
| 20260506062017 | 6 | 329 | 4.8 | 12.9 | 0.00 | 0.00 | 0.00 | 64 | 1008.7 |
| 20260506061517 | 6 | 330 | 4.8 | 12.9 | 0.00 | 0.00 | 0.00 | 63 | 1008.8 |
| 20260506061017 | 6 | 327 | 3.2 | 11.3 | 0.00 | 0.00 | 0.00 | 63 | 1008.8 |
| 20260506060517 | 6 | 312 | 4.8 | 11.3 | 0.00 | 0.00 | 0.00 | 62 | 1008.9 |
| 20260506051016 | 6 | 300 | 6.4 | 14.5 | 0.00 | 0.00 | 0.00 | 61 | 1008.8 |
| 20260506050537 | 6 | 286 | 8.0 | 12.9 | 0.00 | 0.00 | 0.00 | 61 | 1009.1 |
| 20260506045018 | 6 | 304 | 8.0 | 12.9 | 0.00 | 0.00 | 0.00 | 63 | 1008.6 |
| 20260506044516 | 6 | 303 | 8.0 | 12.9 | 0.00 | 0.00 | 0.00 | 63 | 1008.6 |
| 20260506044016 | 6 | 280 | 4.8 | 9.7 | 0.00 | 0.00 | 0.00 | 66 | 1008.6 |
| 20260506043518 | 6 | 289 | 3.2 | 6.4 | 0.00 | 0.00 | 0.00 | 66 | 1008.5 |
| 20260506043018 | 6 | 287 | 3.2 | 8.0 | 0.00 | 0.00 | 0.00 | 67 | 1008.3 |
| 20260506042518 | 6 | 311 | 3.2 | 8.0 | 0.00 | 0.00 | 0.00 | 67 | 1007.9 |
| 20260506042017 | 6 | 313 | 0.0 | 6.4 | 0.00 | 0.00 | 0.00 | 70 | 1008.1 |
| 20260506041517 | 6 | 0.0 | 0.0 | 0.00 | 0.00 | 0.00 | 71 | 1008.1 | |
| 20260506041018 | 6 | 0.0 | 0.0 | 0.00 | 0.00 | 0.00 | 71 | 1008.0 | |
| 20260506040517 | 6 | 0.0 | 0.0 | 0.00 | 0.00 | 0.00 | 71 | 1007.9 | |
| 20260506040016 | 6 | 0.0 | 0.0 | 0.00 | 0.00 | 0.00 | 71 | 1008.0 | |
| 20260506035535 | 6 | 0.0 | 0.0 | 0.00 | 0.00 | 0.00 | 72 | 1008.0 | |
| 20260506035015 | 6 | 0.0 | 0.0 | 0.00 | 0.00 | 0.00 | 73 | 1008.0 | |
| 20260506034515 | 6 | 0.0 | 0.0 | 0.00 | 0.03 | 0.00 | 73 | 1008.0 | |
| 20260506034017 | 6 | 0.0 | 0.0 | 0.00 | 0.03 | 0.00 | 73 | 1008.0 | |
| 20260506033517 | 6 | 0.0 | 0.0 | 0.00 | 0.03 | 0.00 | 72 | 1007.9 | |
| 20260506033017 | 6 | 0.0 | 0.0 | 0.00 | 0.03 | 0.00 | 74 | 1007.9 | |
| 20260506032537 | 6 | 0.0 | 0.0 | 0.00 | 0.03 | 0.00 | 74 | 1007.9 | |
| 20260506032018 | 6 | 0.0 | 0.0 | 0.00 | 0.03 | 0.00 | 74 | 1007.8 | |
| 20260506031517 | 6 | 0.0 | 0.0 | 0.00 | 0.03 | 0.00 | 73 | 1007.7 | |
| 20260506031017 | 6 | 0.0 | 0.0 | 0.00 | 0.03 | 0.00 | 72 | 1008.0 | |
| 20260506030517 | 6 | 0.0 | 0.0 | 0.00 | 0.03 | 0.00 | 71 | 1008.1 | |
| 20260506030018 | 6 | 0.0 | 0.0 | 0.00 | 0.03 | 0.00 | 71 | 1008.0 | |
| 20260506025517 | 6 | 0.0 | 0.0 | 0.00 | 0.03 | 0.00 | 70 | 1008.0 | |
| 20260506025018 | 6 | 0.0 | 0.0 | 0.00 | 0.03 | 0.00 | 70 | 1007.9 | |
| 20260506024517 | 6 | 0.0 | 0.0 | 0.00 | 0.03 | 0.00 | 70 | 1007.9 | |
| 20260506024017 | 6 | 0.0 | 0.0 | 0.00 | 0.03 | 0.00 | 69 | 1007.9 | |
| 20260506023518 | 6 | 0.0 | 0.0 | 0.00 | 0.03 | 0.00 | 69 | 1007.7 | |
| 20260506023017 | 6 | 0.0 | 0.0 | 0.00 | 0.03 | 0.00 | 69 | 1007.6 | |
| 20260506022517 | 6 | 0.0 | 0.0 | 0.00 | 0.03 | 0.00 | 67 | 1007.5 | |
| 20260506022017 | 6 | 0.0 | 0.0 | 0.00 | 0.03 | 0.00 | 65 | 1007.6 | |
| 20260506021537 | 7 | 0.0 | 0.0 | 0.00 | 0.03 | 0.00 | 65 | 1007.6 | |
| 20260506021017 | 7 | 0.0 | 0.0 | 0.00 | 0.03 | 0.00 | 63 | 1007.4 | |
| 20260506020517 | 7 | 0.0 | 0.0 | 0.00 | 0.03 | 0.00 | 63 | 1007.3 | |
| 20260506020017 | 7 | 0.0 | 0.0 | 0.00 | 0.03 | 0.00 | 63 | 1007.3 | |
| 20260506015517 | 7 | 0.0 | 0.0 | 0.00 | 0.03 | 0.00 | 62 | 1007.1 | |
| 20260506015017 | 7 | 0.0 | 0.0 | 0.00 | 0.03 | 0.00 | 62 | 1007.1 | |
| 20260506014517 | 7 | 0.0 | 0.0 | 0.00 | 0.03 | 0.00 | 62 | 1007.0 | |
| 20260506014017 | 7 | 0.0 | 0.0 | 0.00 | 0.03 | 0.00 | 62 | 1006.9 | |
| 20260506013517 | 7 | 0.0 | 0.0 | 0.00 | 0.03 | 0.00 | 62 | 1006.8 | |
| 20260506013037 | 7 | 0.0 | 0.0 | 0.00 | 0.03 | 0.00 | 61 | 1006.6 | |
| 20260506012518 | 7 | 0.0 | 0.0 | 0.00 | 0.03 | 0.00 | 60 | 1006.5 | |
| 20260506012018 | 8 | 0.0 | 0.0 | 0.00 | 0.03 | 0.00 | 57 | 1006.5 | |
| 20260506011517 | 8 | 0.0 | 0.0 | 0.00 | 0.03 | 0.00 | 56 | 1006.5 | |
| 20260506011018 | 8 | 0.0 | 0.0 | 0.00 | 0.03 | 0.00 | 55 | 1006.5 | |
| 20260506010516 | 8 | 0.0 | 0.0 | 0.00 | 0.03 | 0.00 | 56 | 1006.6 | |
| 20260506010016 | 8 | 0.0 | 0.0 | 0.00 | 0.03 | 0.00 | 57 | 1006.6 | |
| 20260506005517 | 8 | 0.0 | 0.0 | 0.00 | 0.03 | 0.00 | 55 | 1006.7 | |
| 20260506005016 | 8 | 0.0 | 0.0 | 0.00 | 0.03 | 0.00 | 52 | 1006.5 | |
| 20260506004517 | 8 | 0.0 | 0.0 | 0.00 | 0.03 | 0.00 | 52 | 1006.6 | |
| 20260506004017 | 9 | 0.0 | 0.0 | 0.00 | 0.03 | 0.00 | 53 | 1006.7 | |
| 20260506003537 | 9 | 0.0 | 3.2 | 0.00 | 0.03 | 0.00 | 51 | 1006.6 | |
| 20260506003016 | 9 | 309 | 0.0 | 3.2 | 0.00 | 0.03 | 0.00 | 50 | 1006.6 |
| 20260506002516 | 9 | 309 | 0.0 | 3.2 | 0.00 | 0.03 | 0.00 | 49 | 1006.6 |
| 20260506002038 | 9 | 308 | 1.6 | 3.2 | 0.00 | 0.03 | 0.00 | 46 | 1006.6 |
| 20260506001537 | 9 | 304 | 1.6 | 3.2 | 0.00 | 0.03 | 0.00 | 46 | 1006.6 |
| 20260506001016 | 9 | 304 | 1.6 | 3.2 | 0.00 | 0.03 | 0.00 | 45 | 1006.6 |
| 20260506000517 | 9 | 299 | 1.6 | 3.2 | 0.00 | 0.03 | 0.00 | 45 | 1006.7 |
| 20260506000017 | 9 | 295 | 1.6 | 6.4 | 0.00 | 0.03 | 0.00 | 46 | 1006.7 |
| 20260505235536 | 9 | 290 | 3.2 | 8.0 | 0.00 | 0.03 | 0.00 | 44 | 1006.8 |
| 20260505235038 | 9 | 302 | 4.8 | 8.0 | 0.00 | 0.03 | 0.00 | 44 | 1006.8 |
| 20260505234516 | 9 | 304 | 3.2 | 9.7 | 0.00 | 0.03 | 0.00 | 44 | 1006.8 |
| 20260505234016 | 9 | 281 | 3.2 | 9.7 | 0.00 | 0.03 | 0.00 | 44 | 1006.7 |
| 20260505233517 | 9 | 275 | 3.2 | 9.7 | 0.00 | 0.03 | 0.00 | 45 | 1006.7 |
| 20260505233018 | 9 | 288 | 3.2 | 9.7 | 0.00 | 0.03 | 0.00 | 45 | 1006.7 |
| 20260505232516 | 9 | 259 | 4.8 | 9.7 | 0.00 | 0.03 | 0.00 | 47 | 1006.7 |
| 20260505232017 | 9 | 282 | 3.2 | 11.3 | 0.00 | 0.03 | 0.00 | 44 | 1006.8 |
| 20260505231516 | 9 | 266 | 6.4 | 12.9 | 0.00 | 0.03 | 0.00 | 44 | 1006.9 |
| 20260505231037 | 10 | 305 | 4.8 | 12.9 | 0.00 | 0.03 | 0.00 | 44 | 1006.8 |
| 20260505230517 | 10 | 314 | 6.4 | 12.9 | 0.00 | 0.03 | 0.00 | 43 | 1006.9 |
| 20260505230037 | 10 | 292 | 6.4 | 12.9 | 0.00 | 0.03 | 0.00 | 42 | 1006.9 |
| 20260505225536 | 10 | 290 | 4.8 | 14.5 | 0.00 | 0.03 | 0.00 | 43 | 1006.9 |
| 20260505225017 | 10 | 312 | 8.0 | 14.5 | 0.00 | 0.03 | 0.00 | 43 | 1006.9 |
| 20260505224517 | 10 | 309 | 8.0 | 14.5 | 0.00 | 0.03 | 0.00 | 44 | 1006.9 |
| 20260505224017 | 10 | 314 | 8.0 | 16.1 | 0.00 | 0.03 | 0.00 | 43 | 1006.9 |
| 20260505223518 | 10 | 321 | 8.0 | 16.1 | 0.00 | 0.03 | 0.00 | 42 | 1007.0 |
| 20260505223016 | 10 | 301 | 6.4 | 12.9 | 0.00 | 0.03 | 0.00 | 44 | 1006.9 |
| 20260505222517 | 10 | 295 | 4.8 | 16.1 | 0.00 | 0.03 | 0.00 | 44 | 1006.8 |
| 20260505222017 | 10 | 282 | 8.0 | 16.1 | 0.00 | 0.03 | 0.00 | 44 | 1006.7 |
| 20260505221516 | 10 | 286 | 8.0 | 14.5 | 0.00 | 0.03 | 0.00 | 43 | 1006.8 |
| 20260505221057 | 10 | 284 | 9.7 | 12.9 | 0.00 | 0.03 | 0.00 | 43 | 1006.8 |
| 20260505220516 | 10 | 282 | 8.0 | 17.7 | 0.00 | 0.03 | 0.00 | 43 | 1006.8 |
| 20260505220016 | 10 | 277 | 11.3 | 17.7 | 0.00 | 0.03 | 0.00 | 43 | 1006.8 |
| 20260505215516 | 10 | 288 | 9.7 | 17.7 | 0.00 | 0.03 | 0.00 | 44 | 1006.7 |
| 20260505215036 | 10 | 286 | 9.7 | 19.3 | 0.00 | 0.03 | 0.00 | 43 | 1006.8 |
| 20260505214516 | 10 | 277 | 11.3 | 19.3 | 0.00 | 0.03 | 0.00 | 42 | 1006.8 |
| 20260505214016 | 10 | 267 | 9.7 | 20.9 | 0.00 | 0.03 | 0.00 | 44 | 1006.8 |
| 20260505213516 | 10 | 264 | 11.3 | 20.9 | 0.00 | 0.03 | 0.00 | 44 | 1006.7 |
| 20260505213016 | 10 | 290 | 11.3 | 17.7 | 0.00 | 0.03 | 0.00 | 43 | 1006.7 |
| 20260505212516 | 10 | 283 | 6.4 | 20.9 | 0.00 | 0.03 | 0.00 | 43 | 1006.9 |
| 20260505212016 | 10 | 311 | 9.7 | 20.9 | 0.00 | 0.03 | 0.00 | 43 | 1006.9 |
| 20260505211517 | 10 | 280 | 8.0 | 17.7 | 0.00 | 0.03 | 0.00 | 45 | 1006.9 |
| 20260505211016 | 10 | 280 | 11.3 | 19.3 | 0.00 | 0.03 | 0.00 | 43 | 1006.9 |
| 20260505210517 | 10 | 281 | 14.5 | 19.3 | 0.00 | 0.03 | 0.00 | 42 | 1006.9 |
| 20260505210016 | 10 | 279 | 11.3 | 19.3 | 0.00 | 0.03 | 0.00 | 43 | 1006.8 |
| 20260505205516 | 10 | 308 | 6.4 | 17.7 | 0.00 | 0.03 | 0.00 | 42 | 1006.8 |
| 20260505205016 | 10 | 268 | 12.9 | 19.3 | 0.00 | 0.03 | 0.00 | 43 | 1006.8 |
| 20260505204516 | 10 | 291 | 9.7 | 19.3 | 0.00 | 0.03 | 0.00 | 42 | 1006.8 |
| 20260505204016 | 10 | 280 | 11.3 | 22.5 | 0.00 | 0.03 | 0.00 | 42 | 1006.9 |
| 20260505203516 | 10 | 271 | 11.3 | 22.5 | 0.00 | 0.03 | 0.00 | 42 | 1007.0 |
| 20260505203017 | 10 | 303 | 14.5 | 22.5 | 0.00 | 0.03 | 0.00 | 41 | 1007.0 |
| 20260505202517 | 10 | 286 | 12.9 | 22.5 | 0.00 | 0.03 | 0.00 | 41 | 1007.2 |
| 20260505202016 | 10 | 303 | 12.9 | 20.9 | 0.00 | 0.03 | 0.00 | 41 | 1007.2 |
| 20260505201516 | 10 | 285 | 11.3 | 19.3 | 0.00 | 0.03 | 0.00 | 42 | 1007.2 |
| 20260505201016 | 10 | 283 | 9.7 | 20.9 | 0.00 | 0.03 | 0.00 | 42 | 1007.1 |
| 20260505200537 | 10 | 282 | 12.9 | 24.1 | 0.00 | 0.03 | 0.00 | 41 | 1007.1 |
| 20260505200016 | 10 | 300 | 14.5 | 24.1 | 0.00 | 0.03 | 0.00 | 41 | 1007.1 |
| 20260505195516 | 10 | 307 | 11.3 | 22.5 | 0.00 | 0.03 | 0.00 | 42 | 1007.1 |
| 20260505195016 | 10 | 275 | 12.9 | 22.5 | 0.00 | 0.03 | 0.00 | 42 | 1007.1 |
| 20260505194517 | 10 | 276 | 11.3 | 19.3 | 0.00 | 0.03 | 0.00 | 41 | 1007.2 |
| 20260505194016 | 10 | 296 | 11.3 | 20.9 | 0.00 | 0.03 | 0.00 | 41 | 1007.2 |